Tracking 22283 objects as of 28-Jan-2021
HD Live streaming from Space Station
objects crossing your sky now

UME 2 (ISS-B)

Track UME 2 (ISS-B) now!
10-day predictions
UME 2 (ISS-B) is classified as:


NORAD ID: 10674
Int'l Code: 1978-018A
Perigee: 983.1 km
Apogee: 1,222.8 km
Inclination: 69.4 °
Period: 107.2 minutes
Semi major axis: 7473 km
RCS: 1.4219 m2 (large)
Launch date: February 16, 1978
Source: Japan (JPN)
Launch site: TANEGASHIMA SPACE CENTER (TNSTA)
aabbcc
Your satellite tracking list
Your tracking list is empty




NASA's NSSDC Master Catalog

Two Line Element Set (TLE):
1 10674U 78018A   21027.38104924 -.00000018  00000-0  51240-4 0  9991
2 10674  69.3605 256.8538 0160349  82.1154  88.4801 13.43618753106423
Source of the keplerian elements: AFSPC